カタログに戻る

FENGYUN 1C DEB

運用中SSO
NORAD 30509·DEBRIS·🇨🇳 China

打ち上げ May 10, 1999 から Taiyuan Satellite Launch Center

Loading…

次のパス (今後24時間)

TLE

最新Source: Space-Track

元期: Sep 14, 2026, 13:23 UTC

1 30509U 99025AHX 26257.55829985  .00001725  00000-0  97044-3 0  9997
2 30509  98.4534 117.4667 0101765   0.0043  29.4701 14.09086577996050

AllMySatでFENGYUN 1C DEBをリアルタイム追跡

Download on the App Store